Location: Hurstbourne Priors
(51.2000°N, 1.3667°W)
Time: 20:14:44
(UTC+00:00)

Transit 4A - Pass Details

Date: 21 April 2021
Orbit: 870 x 974 km, 66.8° (Epoch: 09 May)

Event Time Altitude Azimuth Distance (km) Brightness Sun altitude
Rises 01:02:37 0° 243° (WSW) 3,615 - -25.7°
Reaches altitude 10° 01:05:20 10° 251° (WSW) 2,658 - -25.5°
Exits shadow 01:08:10 26° 268° (W) 1,772 9.2 -25.4°
Maximum altitude 01:11:10 42° 321° (NW) 1,304 8.8 -25.3°
Drops below altitude 10° 01:16:53 10° 32° (NNE) 2,599 11.2 -25.0°
Sets 01:19:31 0° 39° (NE) 3,527 12.1 -24.8°
